Voltar ao catálogo

SL-8 DEB

AtivoLEO
NORAD 21155·DEBRIS·🇷🇺 Russia

Lançado Feb 12, 1991 de Plesetsk Cosmodrome

Loading…

Próximas Passagens (próximas 24 horas)

TLE

AtualizadoSource: Space-Track

Época: Sep 14, 2026, 05:26 UTC

1 21155U 91009S   26257.22699030  .00000013  00000-0  24069-3 0  9994
2 21155  73.9271 341.8596 0144428 277.8847 108.7320 12.30740513598769

Acompanhe SL-8 DEB em tempo real com AllMySat

Download on the App Store